This is the latest recevied weather packets stored in our database for station/object KG4AGD. If no packets are shown the sender has not sent any weather packets the latest 1 day(s).
| Time | Temp. | Humidity | Pressure | Rain* | Wind** | Luminosity | Snow |
|---|---|---|---|---|---|---|---|
| 1778015120 | 27.22° C | 47% | 1015.9 hPa | 0 mm | 3.13 m/s, 179° | - | - |
| 1778014756 | 27.22° C | 47% | 1015.9 hPa | 0 mm | 5.36 m/s, 165° | - | - |
| 1778014454 | 27.22° C | 47% | 1015.9 hPa | 0 mm | 1.79 m/s, 236° | - | - |
| 1778014151 | 27.78° C | 47% | 1015.9 hPa | 0 mm | 4.02 m/s, 164° | - | - |
| 1778013849 | 27.78° C | 47% | 1015.9 hPa | 0 mm | 2.68 m/s, 214° | - | - |
| 1778013547 | 27.22° C | 48% | 1015.9 hPa | 0 mm | 5.81 m/s, 226° | - | - |
| 1778013244 | 27.78° C | 47% | 1015.9 hPa | 0 mm | 4.02 m/s, 228° | - | - |
| 1778012942 | 27.78° C | 50% | 1015.9 hPa | 0 mm | 1.34 m/s, 168° | - | - |
| 1778012640 | 27.22° C | 49% | 1015.9 hPa | 0 mm | 3.13 m/s, 188° | - | - |
| 1778012338 | 26.67° C | 50% | 1015.9 hPa | 0 mm | 6.26 m/s, 205° | - | - |
| 1778012036 | 26.67° C | 50% | 1015.9 hPa | 0 mm | 2.68 m/s, 169° | - | - |
| 1778011733 | 27.78° C | 48% | 1015.9 hPa | 0 mm | 4.92 m/s, 169° | - | - |
| 1778011431 | 27.78° C | 49% | 1016.2 hPa | 0 mm | 3.13 m/s, 183° | - | - |
| 1778011129 | 27.22° C | 50% | 1016.2 hPa | 0 mm | 4.47 m/s, 159° | - | - |
| 1778010827 | 26.67° C | 50% | 1016.5 hPa | 0 mm | 6.71 m/s, 173° | - | - |
| 1778010525 | 27.22° C | 47% | 1016.5 hPa | 0 mm | 3.13 m/s, 179° | - | - |
| 1778010223 | 27.22° C | 49% | 1016.5 hPa | 0 mm | 2.68 m/s, 161° | - | - |
| 1778009920 | 27.78° C | 47% | 1016.5 hPa | 0 mm | 3.13 m/s, 167° | - | - |
| 1778009618 | 26.67° C | 48% | 1016.5 hPa | 0 mm | 4.47 m/s, 217° | - | - |
| 1778009316 | 26.67° C | 50% | 1016.9 hPa | 0 mm | 4.02 m/s, 246° | - | - |
| 1778009014 | 26.67° C | 48% | 1016.9 hPa | 0 mm | 4.02 m/s, 166° | - | - |
| 1778008711 | 27.78° C | 46% | 1016.9 hPa | 0 mm | 5.36 m/s, 140° | - | - |
| 1778008409 | 27.78° C | 48% | 1016.9 hPa | 0 mm | 4.47 m/s, 251° | - | - |
| 1778008107 | 27.78° C | 47% | 1017.2 hPa | 0 mm | 4.92 m/s, 207° | - | - |
| 1778007805 | 27.22° C | 49% | 1017.2 hPa | 0 mm | 1.79 m/s, 187° | - | - |
* Rain since midnight (hover to see other rain measurements)
** Current wind speed in m/s (hover to see current wind gust speed)